アトラス彗星

C/2022 E2 ( ATLAS )

English version
Home page
Updated on January 29, 2023

---------------------------------------------------------------------

・ プロフィール

発見日 2022年3月7日
発見光度 18.7等
発見者 Asteroid Terrestrial-Impact Last Alert System (ATLAS) search program

・ 写真集

・ 軌道要素

Epoch 2023 Feb. 25.0 TT = JDT 2460000.5
T 2024 Sept. 13.96676 TT                                Rudenko
q   3.6671921            (2000.0)            P               Q
z  -0.0002871      Peri.   41.68006     -0.03479155     +0.83129347
 +/-0.0000024      Node   125.36410     +0.63768910     -0.40893142
e   1.0010527      Incl.  137.13621     +0.76950774     +0.37646548
>From 285 observations 2022 Feb. 23-Dec. 22, mean residual 0".4.

・ 星図

・ 光度変化

        m1 = 4.5 + 5 logΔ + 10.0 log r

---------------------------------------------------------------------

軌道要素はM.P.E.C. 2022-Y114に掲載されたものです。
星図はステラナビゲータ Ver.10 (アストロアーツ) で作成したものです。
光度グラフはComet for Windowsで作成したものです。

---------------------------------------------------------------------

Copyright(C) Seiichi Yoshida (comet@aerith.net). All rights reserved.